Meath Environmental Platform

Observations for Trim Patrick St

Time AQI Temp °C Hum % Pres Pa CO μg/m³ H₂S μg/m³ NO μg/m³ NO₂ μg/m³ O₃ μg/m³ SO₂ μg/m³ PM1 μg/m³ PM2.5 μg/m³ PM10 μg/m³
Monday 3 August 2026
14:33 3 30.3 36 69,226 0 0 1.46 20.05 107.86 10.88 5.43 11.28 12.4
14:32 3 30.3 36 69,212 0 0.19 1.46 27.9 133 10.01 4.57 10.48 11.53
14:31 3 30.3 36 69,220 0 0 1.45 24.68 145.4 9.62 5.43 11.29 12.42
14:30 3 30.3 36 69,206 0 0 1.46 18.58 94.33 11.55 4.57 9.7 10.67
14:29 3 30.3 35 69,216 0 0 1.44 30.73 119.08 9.46 6.29 12.9 14.19
14:28 3 30.2 36 69,197 0 0 1.51 20.56 91.13 9.79 6.29 12.81 14.09
14:27 3 30.2 36 69,202 0 0 1.4 24.1 107.12 10.58 5.43 12.06 13.27
14:26 3 30.2 37 69,181 0 0 1.44 25 101.64 9.07 5.43 11.22 12.34
14:25 3 30.1 36 69,177 0 0.11 1.41 24.03 115.43 10.25 5.43 11.28 12.4
14:24 3 30.1 36 69,177 0 3.35 1.43 28.85 109.24 10.24 4.57 11.23 12.35
14:23 3 30 37 69,202 0 2.15 1.41 27.12 164.86 10.02 4.57 11.2 12.32
14:22 3 29.9 36 69,208 0 0 1.41 21.23 120.82 9.47 6.29 12.86 14.15
14:21 3 29.9 38 69,191 0 9.96 1.4 28.02 147.46 11.3 6.29 12.71 13.98
14:20 3 29.8 38 69,171 0 6.35 1.4 27.82 154.58 9.58 4.57 11.08 12.19
14:19 3 29.8 37 69,201 0 5.97 1.36 25.09 118.44 10.67 4.57 10.38 11.41
14:18 3 29.8 37 69,212 0 2.87 1.35 25.96 108.8 9.91 6.29 12.75 14.03
14:17 3 29.7 38 69,201 0 1.91 1.33 22.74 110.14 9.73 5.43 11.92 13.11
14:16 3 29.7 38 69,210 0 7.4 1.33 24.3 148.18 10.89 4.57 11.15 12.27
14:15 3 29.7 37 69,193 0 5.45 1.4 24.92 173.29 10.59 5.43 11.97 13.17
14:14 3 29.7 36 69,199 0 4.13 1.43 24.07 107.06 10.34 5.43 11.25 12.37